Location: Unspecified
(0.0000°N, 0.0000°E)
Time: 00:32:58
(UTC+00:00)

Hubble Space Telescope - Pass Details

Date: 21 January 2022
Orbit: 534 x 538 km, 28.5° (Epoch: 27 January)

Event Time Altitude Azimuth Distance (km) Brightness Sun altitude
Rises 20:04:22 0° 244° (WSW) 2,668 5.7 -26.4°
Reaches altitude 10° 20:06:39 10° 247° (WSW) 1,777 4.4 -27.0°
Enters shadow 20:09:25 40° 262° (W) 795 2.0 -27.6°
